ISS (ZARYA)

Last updated on Mon Jun 22 2026 00:02:10 GMT+0000 (Coordinated Universal Time)

1 25544U 98067A 26172.76913116 .00009060 00000+0 17028-3 0 9997 2 25544 51.6326 277.4139 0004499 214.6152 145.4544 15.49357580572463
UTC large
Height (km)
Speed (km/s)
/
Latitude / Longitude
Inclination (degrees)
Orbital Period (minutes)
Azimuth
Elevation
Range (km)
Doppler Factor

Next 0 passes for location: London (51.5072 / 0.1276)

No passes found over London.
ISS (ZARYA)